Regional Weather Roundup
Issued by NWS Midland/Odessa, TX

Skip options and go directly to product.
Home | Oldest Version | Previous Version | Current Version | All | Graphics & Text | Save Text | Print | Product List | Glossary On

Skip product version selection by date and time.   
477
ASUS44 KMAF 231110
RWRMAF
MIDLAND AREA WEATHER ROUNDUP
NATIONAL WEATHER SERVICE MIDLAND TX
600 AM CDT SAT MAY 23 2015

...IN SOUTHWEST TEXAS AND SOUTHEAST NEW MEXICO...

CITY           SKY/WX    TMP DP  RH WIND       PRES   REMARKS
ALPINE         PTCLDY    64  54  69 CALM      30.11S
ANDREWS        FAIR      65  65 100 SE7       29.97S
ARTESIA        MOCLDY    63  63 100 S10       29.94S FOG
BIG SPRING     CLOUDY    74  68  81 SE10      30.00S
CARLSBAD       MOCLDY    65  63  93 SE6       29.92R FOG
DRYDEN           N/A     72  66  81 S9        29.93F
FORT STOCKTON  CLOUDY    73  55  53 S20G28    29.93S
GUAD PASS      CLEAR     58  56  93 W12       30.06R
HOBBS          CLOUDY    64  64 100 S12       29.97R
MARFA          MOCLDY    61  55  82 SE9       30.09F
MIDLAND AIRPK  CLOUDY    70  65  85 SE8       29.97R
MIDLAND INTL   CLOUDY    68  64  87 SE8       29.95S
ODESSA         MOCLDY    67  63  87 SE8       29.95F
PECOS          PTCLDY    62  60  93 CALM      29.90F FOG
PRESIDIO       FAIR      80  44  27 SE8       29.96S
SEMINOLE       MOCLDY    65  64  97 SE10      29.96F
SNYDER         CLOUDY    70  67  92 SE10      30.01R
WINK           CLEAR     68  62  81 SE9       29.90F
$$
...OTHER STATIONS IN TEXAS...

CITY           SKY/WX    TMP DP  RH WIND       PRES   REMARKS
ABILENE        MOCLDY    72  68  87 SE20G25   30.02R
AMARILLO       TSTM      51  51 100 N13       30.07R FOG
AUSTIN         CLOUDY    73  72  96 CALM      30.06F THUNDER
BROWNSVILLE    PTCLDY    79  75  87 SE9       30.02R
CORPUS CHRISTI MOCLDY    78  74  87 SE10      30.03S
DALLAS FTW     CLOUDY    68  67  96 SE8       30.08S
DEL RIO        CLOUDY    76  73  91 SE14      29.98R
EL PASO        CLOUDY    69  24  18 N6        29.97R
HOUSTON INT    MOCLDY    73  73 100 E8        30.09F FOG
LUBBOCK        LGT RAIN  66  65  96 SE22      29.95F
SAN ANGELO     CLOUDY    74  68  81 SE8       29.97S
SAN ANTONIO    LGT RAIN  76  73  91 SE8       30.07R
WACO           CLOUDY    71  69  93 SE10      30.08R FOG
WICHITA FALLS  NOT AVBL
$$
...OTHER LOCATIONS IN NEW MEXICO...

CITY           SKY/WX    TMP DP  RH WIND       PRES   REMARKS
ALAMAGORDO     PTCLDY    63  27  25 W5        29.99R
ALBUQUERQUE    MOCLDY    52  31  44 SE3       30.01S
CANNON AFB     CLOUDY    55  55 100 E8        29.97S
CLOVIS         CLOUDY    55  52  88 N7        29.96S
HOLLOMAN AFB   MOCLDY    59  33  36 SW7       29.97R
ROSWELL        CLOUDY    66  63  90 S15       29.93R
RUIDOSO        CLEAR     46  27  46 W6        30.08F
SANTA FE       CLEAR     48  44  86 CALM      30.01R
TRUTH OR CONSE CLOUDY    60  27  28 S6        29.97S
TUCUMCARI      CLOUDY    53  51  93 E15       29.94F
$$

USA.gov is the U.S. government's official web portal to all federal, state and local government web resources and services.